Weather reports worldwide

Advertisment
La Rochelle/Ile de Re, France (7316): temperature & dewpoint: 12.01.2020 13:00:00 - 18.01.2020 13:00:00 (CET)La Rochelle/Ile de Re, France (7316): wind speed & gusts: 12.01.2020 13:00:00 - 18.01.2020 13:00:00 (CET)La Rochelle/Ile de Re, France (7316): wind direction: 12.01.2020 13:00:00 - 18.01.2020 13:00:00 (CET)La Rochelle/Ile de Re, France (7316): reduced air pressure: 12.01.2020 13:00:00 - 18.01.2020 13:00:00 (CET)La Rochelle/Ile de Re, France (7316): visibility: 12.01.2020 13:00:00 - 18.01.2020 13:00:00 (CET)La Rochelle/Ile de Re, France (7316): sunshine duration: 12.01.2020 13:00:00 - 18.01.2020 13:00:00 (CET)La Rochelle/Ile de Re, France (7316): precipitation: 12.01.2020 13:00:00 - 18.01.2020 13:00:00 (CET)
Date & Time tt [°C] td [°C] ff [km/h] ff [kn] fx [km/h] fx [kn] dd ppp [hPa] vv [km] sd [min] rr [mm]
18.01.2020 13:00:00 - - - - - - - - - - -
18.01.2020 12:00:00 9,0 5,4 16 9 25 14 ESE 1026,7 36 53 0,0
18.01.2020 11:00:00 7,4 4,0 16 9 23 13 SE 1027,6 51 60 0,0
18.01.2020 10:00:00 6,0 3,7 16 9 23 13 SE 1028,0 42 53 0,0
18.01.2020 09:00:00 5,1 3,3 15 8 21 11 SSE 1028,5 34 0 0,0
18.01.2020 08:00:00 4,0 2,7 13 7 14 8 ESE 1028,4 28 0 0,0
18.01.2020 07:00:00 4,1 2,4 8 4 12 6 E 1028,9 20 0 0,0
18.01.2020 06:00:00 5,2 3,5 9 5 15 8 ESE 1029,0 27 0 0,0
18.01.2020 05:00:00 6,1 3,9 4 2 11 6 E 1029,4 19 0 0,0
18.01.2020 04:00:00 7,3 3,9 5 3 10 6 NNW 1029,6 45 0 0,0
18.01.2020 03:00:00 7,4 3,8 6 3 11 6 SSW 1029,6 35 0 0,0
18.01.2020 02:00:00 7,5 3,0 9 5 13 7 SW 1030,1 40 0 0,0
18.01.2020 01:00:00 6,9 3,0 9 5 18 10 W 1030,1 49 0 0,0
18.01.2020 00:00:00 7,4 3,3 10 5 20 11 W 1029,9 43 0 0,0
17.01.2020 23:00:00 7,6 3,1 10 5 22 12 WSW 1030,0 50 0 0,0
17.01.2020 22:00:00 8,0 3,6 16 9 41 22 W 1029,7 48 0 0,0
17.01.2020 21:00:00 8,2 3,2 19 10 30 16 W 1029,1 48 0 0,2
17.01.2020 20:00:00 7,9 3,7 12 6 29 16 W 1028,8 46 0 0,0
17.01.2020 19:00:00 7,4 3,4 16 9 49 26 NNW 1028,1 20 0 0,0
17.01.2020 18:00:00 7,8 4,0 15 8 55 30 WNW 1027,4 45 2 0,2
17.01.2020 17:00:00 9,5 5,7 18 10 36 20 NW 1026,7 36 18 0,0
17.01.2020 16:00:00 11,0 4,0 26 14 40 21 W 1025,8 42 55 0,0
17.01.2020 15:00:00 11,0 5,1 24 13 48 26 WNW 1024,8 48 46 0,0
17.01.2020 14:00:00 11,7 5,6 24 13 48 26 W 1024,5 35 43 0,2
17.01.2020 13:00:00 10,2 3,7 28 15 44 24 WNW 1024,1 17 35 0,0
17.01.2020 12:00:00 11,4 6,1 24 13 40 22 WNW 1023,8 19 21 0,0
17.01.2020 11:00:00 10,7 6,8 14 8 31 17 W 1022,8 18 0 0,0
17.01.2020 10:00:00 10,5 5,9 17 9 32 17 WSW 1022,0 39 0 0,0
17.01.2020 09:00:00 9,6 6,7 11 6 36 20 WSW 1020,8 17 0 0,4
17.01.2020 08:00:00 9,5 6,6 35 19 59 32 W 1020,7 2,2 0 1,2
17.01.2020 07:00:00 11,3 8,0 26 14 46 25 W 1019,5 19 0 0,6
17.01.2020 06:00:00 10,6 7,3 21 11 61 33 WSW 1018,8 20 0 1,0
17.01.2020 05:00:00 11,9 9,3 19 10 41 22 SW 1018,3 13 0 0,0
17.01.2020 04:00:00 11,8 9,5 23 12 42 23 SW 1018,2 14 0 0,0
17.01.2020 03:00:00 10,9 10,0 18 10 32 18 S 1018,1 6 0 1,4
17.01.2020 02:00:00 11,2 10,1 14 8 27 15 S 1017,9 7 0 1,6
17.01.2020 01:00:00 11,3 9,7 9 5 22 12 SSW 1018,1 18 0 0,8
17.01.2020 00:00:00 11,9 9,5 16 9 34 18 WSW 1018,4 6 0 0,8
16.01.2020 23:00:00 12,0 7,7 22 12 45 24 S 1017,8 19 0 0,0
16.01.2020 22:00:00 12,1 7,8 31 17 52 28 S 1017,6 24 0 0,0
16.01.2020 21:00:00 12,4 7,7 32 18 59 32 S 1016,8 28 0 0,0
16.01.2020 20:00:00 12,4 7,5 27 15 50 27 SSE 1017,1 36 0 0,0
16.01.2020 19:00:00 13,2 7,2 32 18 52 28 SSE 1016,9 49 0 0,0
16.01.2020 18:00:00 13,4 7,4 31 17 49 26 SSE 1017,3 54 7 0,0
16.01.2020 17:00:00 13,9 7,6 26 14 49 26 S 1017,3 48 60 0,0
16.01.2020 16:00:00 14,3 7,3 34 18 53 29 SSE 1017,3 31 60 0,0
16.01.2020 15:00:00 13,9 7,4 35 19 52 28 SSE 1017,9 25 60 0,0
16.01.2020 14:00:00 13,6 7,6 31 17 55 30 S 1018,9 20 60 0,0
16.01.2020 13:00:00 12,8 7,5 28 15 47 26 SSE 1019,9 20 60 0,0
16.01.2020 12:00:00 11,4 6,9 32 17 49 27 SSE 1020,5 20 17 0,0
16.01.2020 11:00:00 9,9 6,1 32 17 52 28 SSE 1021,0 33 52 0,0
16.01.2020 10:00:00 9,0 5,9 29 16 45 24 SSE 1021,2 35 48 0,0
16.01.2020 09:00:00 8,0 5,3 27 15 47 25 SSE 1021,3 27 0 0,0
16.01.2020 08:00:00 7,9 5,2 28 15 44 24 SSE 1021,3 29 0 0,0
16.01.2020 07:00:00 7,7 5,3 27 15 41 22 SSE 1021,4 25 0 0,2
16.01.2020 06:00:00 7,4 5,7 23 12 34 18 SSE 1022,1 21 0 0,0
16.01.2020 05:00:00 7,6 6,1 19 10 35 19 SSE 1022,7 25 0 0,0
16.01.2020 04:00:00 8,5 7,9 19 10 29 16 SSE 1023,0 13 0 0,0
16.01.2020 03:00:00 7,9 7,1 17 9 24 13 SSE 1023,1 11 0 0,0
16.01.2020 02:00:00 8,0 6,9 12 6 22 12 SSE 1023,3 10 0 0,0
16.01.2020 01:00:00 9,0 8,1 16 9 29 16 S 1023,6 10 0 0,2
16.01.2020 00:00:00 9,7 8,9 14 7 22 12 S 1023,7 7 0 0,0
15.01.2020 23:00:00 9,2 8,3 12 7 20 11 SSE 1023,9 4,4 0 0,0
15.01.2020 22:00:00 9,0 7,8 11 6 17 9 SSE 1023,8 6 0 0,0
15.01.2020 21:00:00 9,8 8,6 11 6 16 9 SSE 1023,7 10 0 0,0
15.01.2020 20:00:00 9,8 7,9 6 4 13 7 S 1023,4 16 0 0,0
15.01.2020 19:00:00 10,0 7,8 8 4 14 7 SSW 1022,3 12 0 0,0
15.01.2020 18:00:00 10,6 8,0 8 5 16 9 SSW 1021,5 37 18 0,0
15.01.2020 17:00:00 12,0 8,8 9 5 18 10 WSW 1020,2 15 40 0,0
15.01.2020 16:00:00 12,0 8,8 11 6 23 13 W 1018,9 50 0 0,0
15.01.2020 15:00:00 11,9 8,9 19 11 34 18 WNW 1018,0 20 0 0,0
15.01.2020 14:00:00 13,0 9,1 20 11 43 23 W 1017,2 19 0 0,0
15.01.2020 13:00:00 12,2 9,4 25 13 51 28 SSW 1016,2 14 0 0,0
15.01.2020 12:00:00 12,3 8,4 34 18 50 27 S 1015,1 16 0 0,0
15.01.2020 11:00:00 11,5 6,2 31 17 55 30 S 1014,3 27 0 0,0
15.01.2020 10:00:00 10,9 5,8 32 18 54 29 S 1013,4 39 0 0,0
15.01.2020 09:00:00 10,2 5,2 32 17 55 30 SSE 1012,0 40 0 0,0
15.01.2020 08:00:00 9,7 4,9 35 19 52 28 SSE 1012,0 39 0 0,0
15.01.2020 07:00:00 9,6 4,8 32 18 50 27 SSE 1011,9 37 0 0,0
15.01.2020 06:00:00 9,4 4,8 32 17 48 26 SSE 1012,2 37 0 0,0
15.01.2020 05:00:00 9,1 4,7 29 16 48 26 SSE 1012,2 37 0 0,0
15.01.2020 04:00:00 9,1 4,7 33 18 51 28 SSE 1012,7 35 0 0,0
15.01.2020 03:00:00 9,4 4,8 33 18 52 28 SSE 1012,5 38 0 0,0
15.01.2020 02:00:00 9,5 5,1 29 16 49 26 SSE 1012,7 38 0 0,0
15.01.2020 01:00:00 9,6 5,2 31 17 51 27 SSE 1013,2 37 0 0,0
15.01.2020 00:00:00 9,8 5,8 33 18 51 27 SSE 1013,4 32 0 0,0
14.01.2020 23:00:00 10,0 6,7 28 15 42 23 S 1013,4 27 0 0,0
14.01.2020 22:00:00 10,7 7,0 27 14 46 25 S 1013,5 29 0 0,0
14.01.2020 21:00:00 10,9 6,8 27 14 44 24 S 1013,6 30 0 0,0
14.01.2020 20:00:00 11,2 6,5 23 12 42 23 S 1013,5 38 0 0,0
14.01.2020 19:00:00 11,0 6,3 23 12 37 20 SSE 1013,1 41 0 0,0
14.01.2020 18:00:00 10,5 6,8 21 12 43 23 SSE 1013,4 32 0 0,2
14.01.2020 17:00:00 10,1 7,5 26 14 47 25 SSE 1013,5 16 0 0,2
14.01.2020 16:00:00 10,0 7,6 27 15 42 23 S 1013,4 12 0 0,4
14.01.2020 15:00:00 9,8 7,4 22 12 36 19 S 1013,8 14 0 0,6
14.01.2020 14:00:00 9,6 7,0 21 12 42 23 S 1013,8 18 0 0,4
14.01.2020 13:00:00 9,0 6,3 29 16 50 27 SSE 1013,8 16 0 0,0
14.01.2020 12:00:00 9,0 5,9 27 15 47 26 S 1014,5 20 0 0,2
14.01.2020 11:00:00 8,8 5,7 27 15 50 27 S 1014,2 33 0 0,0
14.01.2020 10:00:00 8,3 5,9 27 14 45 25 S 1013,7 18 0 0,2
14.01.2020 09:00:00 7,8 5,9 32 17 47 25 S 1013,3 9 0 2,1
14.01.2020 08:00:00 9,0 7,6 24 13 45 25 S 1012,9 4,3 0 1,6
14.01.2020 07:00:00 9,1 7,5 27 15 41 22 S 1012,8 5 0 1,4
14.01.2020 06:00:00 10,7 9,0 22 12 39 21 S 1012,6 6 0 0,8
14.01.2020 05:00:00 10,8 8,4 21 12 38 20 S 1012,3 9 0 0,2
14.01.2020 04:00:00 11,0 7,7 21 11 37 20 S 1012,6 15 0 0,0
14.01.2020 03:00:00 9,3 6,4 21 11 43 23 S 1012,7 20 0 0,0
14.01.2020 02:00:00 8,8 5,5 26 14 44 24 S 1012,7 19 0 0,0
14.01.2020 01:00:00 8,9 5,6 27 14 42 23 S 1013,2 16 0 0,0
14.01.2020 00:00:00 8,8 5,7 25 14 41 22 S 1013,3 19 0 0,0
13.01.2020 23:00:00 9,5 6,8 18 10 38 20 S 1013,9 17 0 0,0
13.01.2020 22:00:00 9,0 5,9 27 15 42 23 SSE 1014,1 18 0 0,0
13.01.2020 21:00:00 9,4 6,3 26 14 45 24 S 1014,4 20 0 0,0
13.01.2020 20:00:00 9,4 6,3 24 13 44 24 S 1015,1 16 0 0,0
13.01.2020 19:00:00 9,2 5,9 29 16 47 26 SSE 1014,5 19 0 0,0
13.01.2020 18:00:00 9,6 5,8 26 14 43 23 S 1015,1 26 3 0,0
13.01.2020 17:00:00 9,7 5,9 28 15 44 24 SSE 1015,5 31 5 0,0
13.01.2020 16:00:00 9,9 6,1 29 16 41 22 SSE 1016,1 33 0 0,0
13.01.2020 15:00:00 10,1 6,4 22 12 40 22 S 1016,9 35 0 0,0
13.01.2020 14:00:00 10,3 6,8 25 13 44 24 S 1017,8 33 12 0,0
13.01.2020 13:00:00 9,7 6,6 25 14 41 22 S 1019,0 26 8 0,0
13.01.2020 12:00:00 8,7 6,5 25 13 41 22 S 1020,5 24 0 0,0
13.01.2020 11:00:00 8,9 6,9 23 13 39 21 S 1021,5 20 0 0,0
13.01.2020 10:00:00 9,5 7,6 25 13 43 23 S 1021,6 14 0 0,0
13.01.2020 09:00:00 10,0 8,4 22 12 42 23 S 1021,7 11 0 0,0
13.01.2020 08:00:00 10,4 8,8 25 13 41 22 S 1021,8 27 0 0,0
13.01.2020 07:00:00 10,6 8,7 23 12 43 23 SSW 1022,3 28 0 0,0
13.01.2020 06:00:00 10,7 8,8 22 12 40 22 SSW 1022,9 20 0 0,0
13.01.2020 05:00:00 10,9 9,7 23 13 45 24 SSW 1023,5 17 0 0,0
13.01.2020 04:00:00 10,9 10,3 17 9 33 18 SSW 1024,3 2,5 0 1,2
13.01.2020 03:00:00 10,1 9,5 11 6 24 13 S 1025,2 13 0 0,6
13.01.2020 02:00:00 10,6 10,0 13 7 21 12 SSW 1025,7 5 0 1,2
13.01.2020 01:00:00 10,8 10,2 8 4 14 8 SSE 1026,5 1,0 0 1,0
13.01.2020 00:00:00 10,8 10,2 8 4 16 9 SSW 1027,2 3,5 0 0,0
12.01.2020 23:00:00 10,9 10,3 7 4 11 6 S 1027,5 0,6 0 0,0
12.01.2020 22:00:00 10,8 10,2 6 3 11 6 S 1027,7 1,0 0 0,0
12.01.2020 21:00:00 10,8 10,2 6 3 10 6 S 1028,1 1,6 0 0,0
12.01.2020 20:00:00 10,9 10,3 7 4 13 7 WSW 1028,6 11 0 0,0
12.01.2020 19:00:00 10,7 9,9 6 3 13 7 WSW 1028,5 16 0 0,0
12.01.2020 18:00:00 11,1 10,3 14 7 33 18 WNW 1028,3 3,7 0 0,6
12.01.2020 17:00:00 11,7 11,1 16 9 34 18 SW 1028,1 3,2 0 0,0
12.01.2020 16:00:00 11,7 11,1 16 9 26 14 SW 1028,1 2,6 0 0,4
12.01.2020 15:00:00 11,3 10,7 14 8 27 15 SW 1028,2 1,8 0 0,8
12.01.2020 14:00:00 11,1 10,5 16 9 29 16 SSW 1028,9 1,6 0 0,4
12.01.2020 13:00:00 9,4 7,7 18 10 31 17 S 1029,6 15 0 0,0

tt = temperature
td = dewpoint
ff = wind speed
fx = gusts
dd = wind direction
ppp = reduced air pressure
vv = visibility
sd = sunshine duration
rr = precipitation

Next stations